This is the latest recevied weather packets stored in our database for station/object JR4VEV-13. If no packets are shown the sender has not sent any weather packets the latest 10 day(s).
| Time | Temp. | Humidity | Pressure | Rain* | Wind** | Luminosity | Snow |
|---|---|---|---|---|---|---|---|
| 1777428779 | 18.89° C | 58% | 1016.6 hPa | 0 mm | - | - | - |
| 1777428179 | 19.44° C | 58% | 1016.7 hPa | 0 mm | - | - | - |
| 1777427579 | 18.89° C | 58% | 1016.7 hPa | 0 mm | - | - | - |
| 1777426979 | 18.89° C | 60% | 1016.6 hPa | 0 mm | - | - | - |
| 1777426379 | 18.89° C | 59% | 1016.6 hPa | 0 mm | - | - | - |
| 1777425779 | 18.89° C | 61% | 1016.5 hPa | 0 mm | - | - | - |
| 1777425179 | 18.33° C | 60% | 1016.8 hPa | 0 mm | - | - | - |
| 1777424578 | 18.33° C | 61% | 1016.6 hPa | 0 mm | - | - | - |
| 1777423978 | 18.33° C | 62% | 1016.4 hPa | 0 mm | - | - | - |
| 1777423378 | 18.33° C | 63% | 1016.4 hPa | 0 mm | - | - | - |
| 1777422779 | 17.78° C | 63% | 1016.4 hPa | 0 mm | - | - | - |
| 1777422178 | 17.78° C | 63% | 1016.3 hPa | 0 mm | - | - | - |
| 1777421578 | 17.78° C | 63% | 1016.3 hPa | 0 mm | - | - | - |
| 1777420978 | 17.22° C | 63% | 1016.5 hPa | 0 mm | - | - | - |
| 1777420378 | 17.22° C | 64% | 1016.4 hPa | 0 mm | - | - | - |
| 1777419953 | 17.22° C | 64% | 1016.3 hPa | 0 mm | - | - | - |
| 1777419353 | 17.22° C | 64% | 1016.2 hPa | 0 mm | - | - | - |
| 1777418753 | 17.22° C | 65% | 1016.4 hPa | 0 mm | - | - | - |
| 1777418153 | 16.67° C | 68% | 1016.2 hPa | 0 mm | - | - | - |
| 1777417554 | 16.67° C | 69% | 1016 hPa | 0 mm | - | - | - |
| 1777416954 | 16.11° C | 71% | 1016.2 hPa | 0 mm | - | - | - |
| 1777416352 | 16.11° C | 76% | 1016.1 hPa | 0 mm | - | - | - |
| 1777415752 | 15.56° C | 82% | 1015.9 hPa | 0 mm | - | - | - |
| 1777415152 | 15.56° C | 84% | 1015.5 hPa | 0 mm | - | - | - |
| 1777414553 | 15.56° C | 85% | 1015.5 hPa | 0 mm | - | - | - |
* Rain latest hour (hover to see other rain measurements)
** Current wind speed in m/s (hover to see current wind gust speed)